Starlink 3958

operational
NORAD ID: 52535 Int'l Des: 2022-051 Owner: SPXS Country: US Constellation: starlink
LEOCIRCULAR

Starlink 3958について

説明を読み込み中...

リアルタイム位置

3D地球を読み込み中...

次回通過

高度履歴

Altitude vs Time

uPlot chart will show altitude changes over time

軌道要素

1 52535U 22051C 26034.13278058 .00001719 00000-0 12603-3 0 9992
2 52535 53.2176 284.2551 0001315 94.2440 265.8703 15.08843532206228
Epoch: Feb 3, 2026 • Age: 6 hours

現在のステータス

高度 539.8 km
速度 7.60 km/s
衛星直下点 18.19°N, 18.91°E
打ち上げ日 May 13, 2022
運用期間 3.7 years
タイプ internet

技術仕様

分類 Payload
質量 297.00 kg
乾燥質量 275.00 kg
総質量 297.00 kg
長さ 0.20 m
直径 2.80 m
スパン 9.00 m
形状 Box + pan
製造者 SPXS
バスタイプ Starlink
フェーズステータス In Orbit
所有者/国 SPXS/US

大規模コンステレーション

Loading constellations...